Вернуться в каталог

STARLINK-30270

АктивенСвязьVLEO
NORAD 57530·PAYLOAD·🇺🇸 United States

Запущен Aug 8, 2023 с Vandenberg Space Force Base

Loading…

Ближайшие Пролёты (ближайшие 24 часа)

TLE

СвежийSource: CelesTrak SupGP

Эпоха: Sep 15, 2026, 03:00 UTC

1 57530C 23115K   26258.12548611  .00017898  00000+0  64816-3 0  2581
2 57530  43.0042  11.4852 0001383 263.6761 198.5385 15.27575148    17

Отслеживайте STARLINK-30270 в реальном времени с AllMySat

Download on the App Store